AZG221 UNKL-UBBB

Flight info

Callsign AZG221
Flight time 4h 39m
Altitude 32000
Route APRUS2F APRUS B926 ODIDA B808 DAKIN N55 BALUN/N0477F320 N70 ROPKA
Aircraft B77L/H-SDE1E2E3FGHIJ2J3J4J5M1RWXY/LB1D1

Departure

Time 2026-04-29 11:50
Airport Krasnoyarsk International Airport (UNKL)

Arrival

Time 2026-04-29 16:30
Airport Heydar Aliyev International Airport (UBBB)
Time Latitude Longitude Altitude Speed Heading
2026-04-29 11:33 56.18395 92.46759 961 ft 0 kts 203°
2026-04-29 11:38 56.18395 92.46760 961 ft 0 kts 203°
2026-04-29 11:41 56.18373 92.46743 958 ft 8 kts 201°
2026-04-29 11:42 56.18316 92.46748 957 ft 9 kts 135°
2026-04-29 11:42 56.18289 92.46852 958 ft 9 kts 112°
2026-04-29 11:42 56.18262 92.46958 959 ft 9 kts 115°
2026-04-29 11:42 56.18236 92.47065 957 ft 9 kts 112°
2026-04-29 11:43 56.18211 92.47172 957 ft 9 kts 112°
2026-04-29 11:43 56.18186 92.47279 958 ft 9 kts 112°
2026-04-29 11:43 56.18160 92.47389 957 ft 11 kts 113°
2026-04-29 11:43 56.18117 92.47567 959 ft 19 kts 113°
2026-04-29 11:44 56.18057 92.47777 957 ft 19 kts 117°
2026-04-29 11:44 56.18003 92.47988 958 ft 19 kts 113°
2026-04-29 11:44 56.17961 92.48164 956 ft 15 kts 115°
2026-04-29 11:44 56.17907 92.48319 958 ft 15 kts 116°
2026-04-29 11:45 56.17855 92.48445 957 ft 12 kts 167°
2026-04-29 11:45 56.17771 92.48422 959 ft 12 kts 179°
2026-04-29 11:45 56.17712 92.48536 957 ft 14 kts 117°
2026-04-29 11:45 56.17668 92.48714 958 ft 17 kts 112°
2026-04-29 11:46 56.17618 92.48926 957 ft 20 kts 113°
2026-04-29 11:46 56.17561 92.49167 957 ft 24 kts 113°
2026-04-29 11:46 56.17480 92.49508 958 ft 32 kts 113°
2026-04-29 11:46 56.17394 92.49872 960 ft 30 kts 113°
2026-04-29 11:47 56.17312 92.50217 958 ft 30 kts 113°
2026-04-29 11:47 56.17230 92.50562 957 ft 30 kts 113°
2026-04-29 11:47 56.17148 92.50905 959 ft 30 kts 113°
2026-04-29 11:47 56.17066 92.51249 957 ft 30 kts 113°
2026-04-29 11:48 56.17011 92.51477 957 ft 30 kts 113°
2026-04-29 11:48 56.16938 92.51785 957 ft 19 kts 112°
2026-04-29 11:48 56.16927 92.51833 958 ft 0 kts 112°
2026-04-29 11:48 56.16926 92.51834 960 ft 2 kts 112°
2026-04-29 11:49 56.16887 92.51963 956 ft 22 kts 133°
2026-04-29 11:49 56.16742 92.52041 956 ft 22 kts 174°
2026-04-29 11:49 56.16672 92.51916 955 ft 13 kts 274°
2026-04-29 11:49 56.16712 92.51774 956 ft 13 kts 294°
2026-04-29 11:50 56.16804 92.51371 956 ft 73 kts 292°
2026-04-29 11:50 56.17112 92.50063 956 ft 154 kts 292°
2026-04-29 11:50 56.17620 92.47952 1140 ft 201 kts 293°
2026-04-29 11:50 56.18226 92.45688 2036 ft 199 kts 295°
2026-04-29 11:51 56.18771 92.43421 2894 ft 205 kts 291°
2026-04-29 11:51 56.19342 92.40885 3092 ft 233 kts 291°
2026-04-29 11:51 56.19975 92.38137 3682 ft 242 kts 292°
2026-04-29 11:51 56.20630 92.35326 4453 ft 247 kts 292°
2026-04-29 11:52 56.21301 92.32465 5341 ft 249 kts 292°
2026-04-29 11:52 56.21719 92.29470 5969 ft 254 kts 269°
2026-04-29 11:52 56.21343 92.26357 6774 ft 257 kts 252°
2026-04-29 11:52 56.20703 92.23340 7520 ft 261 kts 251°
2026-04-29 11:53 56.20037 92.20283 8250 ft 265 kts 251°
2026-04-29 11:53 56.19355 92.17182 8982 ft 270 kts 252°
2026-04-29 11:53 56.18659 92.14022 9690 ft 274 kts 252°
2026-04-29 11:53 56.17951 92.10813 10422 ft 278 kts 252°
2026-04-29 11:54 56.17228 92.07523 10867 ft 293 kts 252°
2026-04-29 11:54 56.16451 92.03973 11032 ft 317 kts 252°
2026-04-29 11:54 56.15615 92.00162 11226 ft 341 kts 252°
2026-04-29 11:54 56.14717 91.96081 11556 ft 359 kts 252°
2026-04-29 11:55 56.13782 91.91856 12156 ft 370 kts 252°
2026-04-29 11:55 56.12822 91.87521 12914 ft 376 kts 252°
2026-04-29 11:55 56.11848 91.83134 13721 ft 382 kts 252°
2026-04-29 11:55 56.10860 91.78681 14456 ft 388 kts 253°
2026-04-29 11:56 56.09857 91.74168 15172 ft 392 kts 252°
2026-04-29 11:56 56.08840 91.69601 15885 ft 397 kts 252°
2026-04-29 11:56 56.07808 91.64977 16584 ft 402 kts 252°
2026-04-29 11:56 56.06764 91.60310 17290 ft 407 kts 252°
2026-04-29 11:57 56.05705 91.55581 17969 ft 412 kts 252°
2026-04-29 11:57 56.04631 91.50804 18655 ft 416 kts 252°
2026-04-29 11:57 56.03545 91.45978 19245 ft 421 kts 252°
2026-04-29 11:57 56.02445 91.41106 19847 ft 424 kts 253°
2026-04-29 11:58 56.01333 91.36194 20447 ft 428 kts 253°
2026-04-29 11:58 56.00209 91.31231 21031 ft 432 kts 253°
2026-04-29 11:58 55.99074 91.26232 21606 ft 436 kts 253°
2026-04-29 11:58 55.98000 91.21165 22174 ft 437 kts 258°
2026-04-29 11:59 55.97233 91.15927 22685 ft 438 kts 263°
2026-04-29 11:59 55.96634 91.10557 23254 ft 441 kts 265°
2026-04-29 11:59 55.96085 91.05147 23817 ft 444 kts 265°
2026-04-29 11:59 55.95528 90.99698 24306 ft 448 kts 265°
2026-04-29 12:00 55.94940 90.94213 24776 ft 452 kts 264°
2026-04-29 12:00 55.94320 90.88701 25277 ft 455 kts 264°
2026-04-29 12:00 55.93673 90.83142 25732 ft 459 kts 264°
2026-04-29 12:00 55.93008 90.77557 26194 ft 462 kts 263°
2026-04-29 12:01 55.92330 90.71938 26650 ft 465 kts 263°
2026-04-29 12:01 55.91642 90.66288 27104 ft 468 kts 263°
2026-04-29 12:01 55.90946 90.60591 27551 ft 471 kts 263°
2026-04-29 12:01 55.90244 90.54866 27987 ft 475 kts 263°
2026-04-29 12:02 55.89536 90.49102 28410 ft 478 kts 263°
2026-04-29 12:02 55.88830 90.43376 28807 ft 481 kts 263°
2026-04-29 12:02 55.88100 90.37477 29211 ft 483 kts 263°
2026-04-29 12:02 55.87381 90.31689 29589 ft 486 kts 263°
2026-04-29 12:03 55.86645 90.25794 29948 ft 489 kts 263°
2026-04-29 12:03 55.85906 90.19897 30398 ft 489 kts 263°
2026-04-29 12:03 55.85162 90.14002 30870 ft 487 kts 263°
2026-04-29 12:03 55.84420 90.08146 31396 ft 483 kts 263°
2026-04-29 12:04 55.83679 90.02328 31900 ft 481 kts 263°
2026-04-29 12:04 55.82942 89.96541 32337 ft 479 kts 263°
2026-04-29 12:04 55.82204 89.90762 32755 ft 478 kts 263°
2026-04-29 12:04 55.81468 89.85026 33193 ft 476 kts 263°
2026-04-29 12:05 55.80730 89.79303 33631 ft 474 kts 263°
2026-04-29 12:05 55.79995 89.73620 34108 ft 470 kts 263°
2026-04-29 12:05 55.79261 89.67975 34402 ft 470 kts 262°
2026-04-29 12:05 55.78522 89.62294 34356 ft 471 kts 262°
2026-04-29 12:06 55.77042 89.51021 34377 ft 467 kts 262°
2026-04-29 12:06 55.75555 89.39766 34366 ft 469 kts 262°
2026-04-29 12:07 55.74052 89.28482 34363 ft 470 kts 262°
2026-04-29 12:07 55.72533 89.17178 34357 ft 471 kts 262°
2026-04-29 12:08 55.71005 89.05890 34377 ft 471 kts 262°
2026-04-29 12:08 55.69468 88.94597 34357 ft 471 kts 262°
2026-04-29 12:09 55.67931 88.83327 34354 ft 470 kts 262°
2026-04-29 12:09 55.66388 88.72077 34375 ft 470 kts 262°
2026-04-29 12:10 55.64835 88.60856 34366 ft 469 kts 262°
2026-04-29 12:10 55.63272 88.49649 34368 ft 468 kts 261°
2026-04-29 12:11 55.61701 88.38472 34366 ft 468 kts 261°
2026-04-29 12:11 55.60123 88.27319 34376 ft 467 kts 261°
2026-04-29 12:12 55.58536 88.16190 34376 ft 467 kts 261°
2026-04-29 12:12 55.56937 88.05055 34379 ft 467 kts 261°
2026-04-29 12:13 55.55331 87.93953 34376 ft 467 kts 261°
2026-04-29 12:13 55.53715 87.82851 34382 ft 466 kts 261°
2026-04-29 12:14 55.52090 87.71778 34384 ft 466 kts 261°
2026-04-29 12:14 55.50456 87.60710 34379 ft 466 kts 261°
2026-04-29 12:15 55.48810 87.49642 34383 ft 466 kts 260°
2026-04-29 12:15 55.47151 87.38594 34372 ft 466 kts 260°
2026-04-29 12:16 55.45482 87.27576 34390 ft 465 kts 260°
2026-04-29 12:16 55.43804 87.16563 34384 ft 465 kts 260°
2026-04-29 12:17 55.42116 87.05564 34382 ft 465 kts 260°
2026-04-29 12:17 55.40431 86.94654 34384 ft 465 kts 260°
2026-04-29 12:18 55.38721 86.83653 34381 ft 465 kts 259°
2026-04-29 12:18 55.37009 86.72719 34391 ft 465 kts 259°
2026-04-29 12:19 55.35279 86.61740 34375 ft 465 kts 259°
2026-04-29 12:19 55.33544 86.50800 34385 ft 465 kts 259°
2026-04-29 12:20 55.31796 86.39849 34374 ft 465 kts 259°
2026-04-29 12:20 55.30040 86.28928 34377 ft 465 kts 259°
2026-04-29 12:21 55.28276 86.18006 34371 ft 465 kts 259°
2026-04-29 12:21 55.26859 86.07008 34372 ft 459 kts 268°
2026-04-29 12:22 55.26331 85.95886 34368 ft 457 kts 270°
2026-04-29 12:22 55.25831 85.84759 34375 ft 458 kts 270°
2026-04-29 12:23 55.25292 85.73645 34376 ft 458 kts 269°
2026-04-29 12:23 55.24727 85.62512 34381 ft 459 kts 269°
2026-04-29 12:24 55.24161 85.51595 34375 ft 459 kts 269°
2026-04-29 12:24 55.23574 85.40458 34379 ft 459 kts 269°
2026-04-29 12:25 55.22980 85.29380 34380 ft 459 kts 269°
2026-04-29 12:26 55.22065 85.12671 34384 ft 460 kts 268°
2026-04-29 12:26 55.21442 85.01531 34366 ft 460 kts 268°
2026-04-29 12:27 55.20808 84.90393 34381 ft 459 kts 268°
2026-04-29 12:27 55.20165 84.79271 34377 ft 459 kts 268°
2026-04-29 12:28 55.19510 84.68159 34376 ft 459 kts 267°
2026-04-29 12:28 55.18659 84.57077 34379 ft 459 kts 266°
2026-04-29 12:29 55.17878 84.46010 34379 ft 458 kts 268°
2026-04-29 12:29 55.17270 84.34926 34373 ft 458 kts 268°
2026-04-29 12:30 55.16648 84.23843 34365 ft 458 kts 268°
2026-04-29 12:30 55.15989 84.12773 34373 ft 457 kts 268°
2026-04-29 12:31 55.15308 84.01716 34376 ft 457 kts 267°
2026-04-29 12:31 55.14616 83.90673 34368 ft 457 kts 267°
2026-04-29 12:32 55.13915 83.79635 34374 ft 457 kts 267°
2026-04-29 12:32 55.13205 83.68610 34365 ft 456 kts 267°
2026-04-29 12:33 55.12486 83.57596 34362 ft 456 kts 267°
2026-04-29 12:33 55.11763 83.46682 34361 ft 455 kts 267°
2026-04-29 12:34 55.11147 83.37489 34357 ft 455 kts 267°
2026-04-29 12:34 55.10402 83.26521 34363 ft 454 kts 266°
2026-04-29 12:35 55.09648 83.15579 34352 ft 454 kts 266°
2026-04-29 12:35 55.08886 83.04670 34350 ft 453 kts 266°
2026-04-29 12:36 55.08114 82.93740 34352 ft 453 kts 266°
2026-04-29 12:36 55.07421 82.82901 34349 ft 451 kts 269°
2026-04-29 12:37 55.06969 82.71995 34345 ft 451 kts 269°
2026-04-29 12:37 55.06504 82.61073 34348 ft 451 kts 269°
2026-04-29 12:38 55.05990 82.50178 34352 ft 451 kts 268°
2026-04-29 12:38 55.05460 82.39297 34347 ft 450 kts 268°
2026-04-29 12:39 55.04928 82.28421 34347 ft 450 kts 268°
2026-04-29 12:39 55.04402 82.17543 34348 ft 450 kts 268°
2026-04-29 12:40 55.03866 82.06681 34348 ft 449 kts 268°
2026-04-29 12:40 55.03320 81.95833 34337 ft 449 kts 268°
2026-04-29 12:41 55.02761 81.84980 34335 ft 449 kts 268°
2026-04-29 12:41 55.02194 81.74144 34329 ft 449 kts 267°
2026-04-29 12:42 55.01618 81.63320 34331 ft 449 kts 267°
2026-04-29 12:42 55.01032 81.52501 34333 ft 448 kts 267°
2026-04-29 12:43 55.00437 81.41698 34324 ft 448 kts 267°
2026-04-29 12:43 54.99832 81.30898 34334 ft 448 kts 267°
2026-04-29 12:44 54.99218 81.20109 34327 ft 448 kts 266°
2026-04-29 12:44 54.98594 81.09328 34325 ft 448 kts 266°
2026-04-29 12:45 54.97962 80.98543 34327 ft 447 kts 266°
2026-04-29 12:45 54.97323 80.87771 34317 ft 447 kts 266°
2026-04-29 12:46 54.96676 80.77002 34314 ft 447 kts 266°
2026-04-29 12:46 54.96019 80.66241 34318 ft 447 kts 266°
2026-04-29 12:47 54.95351 80.55488 34310 ft 447 kts 265°
2026-04-29 12:47 54.94674 80.44740 34309 ft 447 kts 265°
2026-04-29 12:48 54.93988 80.34008 34307 ft 447 kts 265°
2026-04-29 12:48 54.93292 80.23277 34302 ft 446 kts 265°
2026-04-29 12:49 54.92588 80.12559 34301 ft 446 kts 265°
2026-04-29 12:49 54.91874 80.01846 34303 ft 446 kts 264°
2026-04-29 12:50 54.91151 79.91150 34299 ft 445 kts 264°
2026-04-29 12:50 54.90420 79.80465 34310 ft 445 kts 264°
2026-04-29 12:51 54.89680 79.69795 34298 ft 445 kts 264°
2026-04-29 12:51 54.88936 79.59201 34297 ft 445 kts 264°
2026-04-29 12:52 54.88179 79.48549 34297 ft 444 kts 264°
2026-04-29 12:52 54.87411 79.37901 34299 ft 444 kts 263°
2026-04-29 12:53 54.86635 79.27258 34289 ft 444 kts 263°
2026-04-29 12:53 54.85850 79.16626 34283 ft 444 kts 263°
2026-04-29 12:54 54.85054 79.05971 33742 ft 447 kts 263°
2026-04-29 12:54 54.84650 79.00600 33899 ft 451 kts 262°
2026-04-29 12:54 54.84239 78.95179 33959 ft 457 kts 262°
2026-04-29 12:55 54.83392 78.84129 34008 ft 469 kts 262°
2026-04-29 12:55 54.82509 78.72757 34010 ft 481 kts 262°
2026-04-29 12:56 54.81598 78.61154 34010 ft 488 kts 262°
2026-04-29 12:56 54.80672 78.49515 33998 ft 487 kts 262°
2026-04-29 12:57 54.79738 78.37904 34000 ft 486 kts 262°
2026-04-29 12:57 54.78795 78.26337 34000 ft 485 kts 262°
2026-04-29 12:58 54.77842 78.14788 34000 ft 484 kts 262°
2026-04-29 12:58 54.76879 78.03250 34001 ft 484 kts 262°
2026-04-29 12:59 54.75906 77.91730 34002 ft 483 kts 262°
2026-04-29 12:59 54.74922 77.80217 34002 ft 484 kts 262°
2026-04-29 13:00 54.73927 77.68710 34002 ft 484 kts 261°
2026-04-29 13:00 54.72919 77.57193 34002 ft 484 kts 261°
2026-04-29 13:01 54.71900 77.45680 34002 ft 484 kts 261°
2026-04-29 13:01 54.70870 77.34165 34002 ft 485 kts 261°
2026-04-29 13:02 54.69829 77.22645 34001 ft 485 kts 261°
2026-04-29 13:02 54.68774 77.11134 34001 ft 485 kts 261°
2026-04-29 13:03 54.67707 76.99637 34001 ft 485 kts 261°
2026-04-29 13:03 54.67663 76.99164 34001 ft 485 kts 261°
2026-04-29 13:04 54.67264 76.94860 34604 ft 473 kts 259°
2026-04-29 13:04 54.66749 76.89347 34462 ft 457 kts 259°
2026-04-29 13:04 54.66248 76.84025 34393 ft 441 kts 258°
2026-04-29 13:05 54.65760 76.78874 34296 ft 429 kts 258°
2026-04-29 13:05 54.64779 76.68652 34236 ft 438 kts 258°
2026-04-29 13:06 54.63761 76.58167 34222 ft 446 kts 258°
2026-04-29 13:06 54.62734 76.47616 34222 ft 445 kts 258°
2026-04-29 13:07 54.61700 76.37087 34212 ft 444 kts 258°
2026-04-29 13:07 54.60661 76.26603 34213 ft 443 kts 258°
2026-04-29 13:08 54.59615 76.16154 34206 ft 442 kts 258°
2026-04-29 13:08 54.58568 76.05796 34204 ft 441 kts 257°
2026-04-29 13:09 54.57508 75.95399 34207 ft 440 kts 257°
2026-04-29 13:09 54.56439 75.85014 34204 ft 440 kts 257°
2026-04-29 13:10 54.55360 75.74631 34203 ft 440 kts 257°
2026-04-29 13:10 54.54274 75.64249 34192 ft 441 kts 257°
2026-04-29 13:11 54.53180 75.53864 34205 ft 441 kts 257°
2026-04-29 13:11 54.52081 75.43442 34200 ft 443 kts 257°
2026-04-29 13:12 54.50973 75.33006 34203 ft 444 kts 257°
2026-04-29 13:12 54.49851 75.22551 34196 ft 445 kts 257°
2026-04-29 13:13 54.48717 75.12091 34191 ft 445 kts 257°
2026-04-29 13:13 54.47575 75.01635 34193 ft 445 kts 257°
2026-04-29 13:14 54.46426 74.91204 34191 ft 444 kts 256°
2026-04-29 13:14 54.45269 74.80792 34190 ft 443 kts 256°
2026-04-29 13:15 54.44105 74.70402 34192 ft 442 kts 256°
2026-04-29 13:15 54.42934 74.60042 34189 ft 442 kts 256°
2026-04-29 13:16 54.41755 74.49689 34187 ft 441 kts 256°
2026-04-29 13:16 54.40567 74.39346 34184 ft 441 kts 256°
2026-04-29 13:17 54.39372 74.29026 34186 ft 441 kts 256°
2026-04-29 13:17 54.38168 74.18702 34183 ft 441 kts 256°
2026-04-29 13:18 54.36954 74.08385 34185 ft 442 kts 256°
2026-04-29 13:18 54.35730 73.98064 34184 ft 442 kts 256°
2026-04-29 13:19 54.34706 73.89477 34188 ft 442 kts 256°
2026-04-29 13:19 54.33464 73.79150 34184 ft 443 kts 255°
2026-04-29 13:20 54.32211 73.68834 34182 ft 443 kts 255°
2026-04-29 13:20 54.30945 73.58496 34179 ft 443 kts 255°
2026-04-29 13:21 54.29671 73.48175 34185 ft 444 kts 255°
2026-04-29 13:21 54.28385 73.37832 34188 ft 444 kts 255°
2026-04-29 13:22 54.27090 73.27495 34182 ft 444 kts 255°
2026-04-29 13:22 54.25785 73.17161 34191 ft 444 kts 255°
2026-04-29 13:23 54.24473 73.06841 34187 ft 444 kts 255°
2026-04-29 13:23 54.23150 72.96519 34187 ft 445 kts 255°
2026-04-29 13:24 54.21818 72.86198 34173 ft 445 kts 255°
2026-04-29 13:24 54.20474 72.75859 34189 ft 446 kts 255°
2026-04-29 13:25 54.19121 72.65529 34192 ft 446 kts 255°
2026-04-29 13:25 54.17074 72.50023 34175 ft 447 kts 256°
2026-04-29 13:26 54.15144 72.39984 34196 ft 445 kts 246°
2026-04-29 13:26 54.12250 72.30655 34179 ft 445 kts 238°
2026-04-29 13:27 54.08931 72.21733 34172 ft 446 kts 238°
2026-04-29 13:27 54.05588 72.12820 34183 ft 447 kts 238°
2026-04-29 13:28 54.02245 72.03881 34176 ft 448 kts 238°
2026-04-29 13:28 53.98897 71.94922 34172 ft 449 kts 238°
2026-04-29 13:29 53.95544 71.85973 34171 ft 449 kts 238°
2026-04-29 13:29 53.92180 71.77027 34170 ft 450 kts 238°
2026-04-29 13:30 53.88831 71.68153 34174 ft 450 kts 238°
2026-04-29 13:30 53.85452 71.59232 34173 ft 450 kts 238°
2026-04-29 13:31 53.82060 71.50308 34175 ft 450 kts 238°
2026-04-29 13:31 53.78667 71.41415 34175 ft 450 kts 238°
2026-04-29 13:32 53.75262 71.32519 34169 ft 451 kts 238°
2026-04-29 13:32 53.71849 71.23637 34166 ft 451 kts 238°
2026-04-29 13:33 53.68430 71.14771 34172 ft 451 kts 237°
2026-04-29 13:33 53.65004 71.05916 34167 ft 451 kts 237°
2026-04-29 13:34 53.61568 70.97068 34164 ft 451 kts 237°
2026-04-29 13:34 53.58127 70.88238 34166 ft 451 kts 237°
2026-04-29 13:35 53.54680 70.79423 34166 ft 451 kts 237°
2026-04-29 13:35 53.51229 70.70629 34164 ft 451 kts 237°
2026-04-29 13:36 53.47798 70.61917 34164 ft 450 kts 237°
2026-04-29 13:36 53.44338 70.53160 34166 ft 450 kts 237°
2026-04-29 13:37 53.40874 70.44424 34176 ft 450 kts 237°
2026-04-29 13:37 53.37402 70.35698 34163 ft 450 kts 237°
2026-04-29 13:38 53.33927 70.26996 34160 ft 450 kts 237°
2026-04-29 13:38 53.30443 70.18301 34161 ft 449 kts 237°
2026-04-29 13:39 53.26958 70.09633 34155 ft 449 kts 237°
2026-04-29 13:39 53.23470 70.00988 34162 ft 449 kts 236°
2026-04-29 13:40 53.19974 69.92350 34178 ft 449 kts 236°
2026-04-29 13:40 53.16476 69.83740 34154 ft 449 kts 236°
2026-04-29 13:41 53.12968 69.75133 34154 ft 449 kts 236°
2026-04-29 13:41 53.09460 69.66556 34155 ft 449 kts 236°
2026-04-29 13:42 53.05941 69.57981 34160 ft 448 kts 236°
2026-04-29 13:42 53.02421 69.49432 34154 ft 448 kts 236°
2026-04-29 13:43 52.98894 69.40894 34151 ft 448 kts 236°
2026-04-29 13:43 52.95361 69.32371 34157 ft 448 kts 236°
2026-04-29 13:44 52.91852 69.23934 34156 ft 448 kts 236°
2026-04-29 13:44 52.88312 69.15453 34157 ft 447 kts 236°
2026-04-29 13:45 52.84768 69.06987 34174 ft 447 kts 236°
2026-04-29 13:45 52.81220 68.98541 34149 ft 447 kts 236°
2026-04-29 13:46 52.77667 68.90113 34146 ft 447 kts 236°
2026-04-29 13:46 52.74108 68.81697 34151 ft 447 kts 236°
2026-04-29 13:47 52.70546 68.73302 34151 ft 447 kts 235°
2026-04-29 13:47 52.66980 68.64926 34152 ft 446 kts 235°
2026-04-29 13:48 52.63407 68.56559 34144 ft 447 kts 235°
2026-04-29 13:48 52.59828 68.48208 34148 ft 446 kts 235°
2026-04-29 13:49 52.56244 68.39870 34146 ft 446 kts 235°
2026-04-29 13:49 52.52656 68.31551 34139 ft 446 kts 235°
2026-04-29 13:50 52.49061 68.23244 34133 ft 446 kts 235°
2026-04-29 13:50 52.45460 68.14951 34159 ft 446 kts 235°
2026-04-29 13:51 52.41879 68.06730 34133 ft 446 kts 235°
2026-04-29 13:51 52.38265 67.98458 34133 ft 446 kts 235°
2026-04-29 13:52 52.34649 67.90211 34134 ft 446 kts 235°
2026-04-29 13:52 52.31006 67.81926 34139 ft 446 kts 235°
2026-04-29 13:53 52.27398 67.73751 34131 ft 446 kts 235°
2026-04-29 13:53 52.23764 67.65543 34131 ft 446 kts 234°
2026-04-29 13:54 52.20127 67.57349 34147 ft 446 kts 234°
2026-04-29 13:54 52.16553 67.49097 34128 ft 446 kts 236°
2026-04-29 13:55 52.13039 67.40778 34124 ft 446 kts 236°
2026-04-29 13:55 52.09520 67.32479 34125 ft 446 kts 236°
2026-04-29 13:56 52.05985 67.24207 34121 ft 446 kts 236°
2026-04-29 13:56 52.02438 67.15951 34130 ft 445 kts 236°
2026-04-29 13:57 51.98891 67.07724 34144 ft 445 kts 236°
2026-04-29 13:57 51.95934 67.00886 34137 ft 445 kts 236°
2026-04-29 13:58 51.91775 66.91296 34139 ft 445 kts 235°
2026-04-29 13:58 51.88210 66.83104 34131 ft 445 kts 235°
2026-04-29 13:59 51.84637 66.74922 34136 ft 445 kts 235°
2026-04-29 13:59 51.81060 66.66754 34138 ft 445 kts 235°
2026-04-29 14:00 51.77477 66.58600 34137 ft 445 kts 235°
2026-04-29 14:00 51.73890 66.50461 34137 ft 445 kts 235°
2026-04-29 14:01 51.70290 66.42320 34135 ft 446 kts 235°
2026-04-29 14:01 51.66689 66.34201 34134 ft 446 kts 235°
2026-04-29 14:02 51.63078 66.26087 34114 ft 446 kts 235°
2026-04-29 14:02 51.59465 66.17991 34132 ft 446 kts 235°
2026-04-29 14:03 51.55844 66.09904 34132 ft 445 kts 235°
2026-04-29 14:03 51.52218 66.01831 34129 ft 445 kts 235°
2026-04-29 14:04 51.48588 65.93774 34130 ft 445 kts 235°
2026-04-29 14:04 51.44958 65.85743 34122 ft 445 kts 235°
2026-04-29 14:05 51.41317 65.77713 34124 ft 445 kts 235°
2026-04-29 14:05 51.37675 65.69704 34129 ft 445 kts 235°
2026-04-29 14:06 51.34646 65.63061 34124 ft 445 kts 235°
2026-04-29 14:06 51.30401 65.53783 34125 ft 445 kts 235°
2026-04-29 14:07 51.27339 65.47109 34126 ft 444 kts 235°
2026-04-29 14:07 51.23085 65.37867 34121 ft 444 kts 235°
2026-04-29 14:08 51.20018 65.31224 34120 ft 444 kts 235°
2026-04-29 14:08 51.16351 65.23304 34122 ft 444 kts 235°
2026-04-29 14:09 51.12683 65.15408 34122 ft 443 kts 235°
2026-04-29 14:09 51.09010 65.07522 34119 ft 443 kts 235°
2026-04-29 14:10 51.05334 64.99653 34120 ft 443 kts 235°
2026-04-29 14:10 51.01653 64.91801 34113 ft 443 kts 235°
2026-04-29 14:11 50.97972 64.83970 34116 ft 442 kts 235°
2026-04-29 14:11 50.94288 64.76156 34118 ft 442 kts 235°
2026-04-29 14:12 50.90606 64.68372 34119 ft 442 kts 235°
2026-04-29 14:12 50.86938 64.60641 34120 ft 441 kts 235°
2026-04-29 14:13 50.83241 64.52891 34115 ft 441 kts 234°
2026-04-29 14:13 50.79479 64.45222 34117 ft 441 kts 234°
2026-04-29 14:14 50.75768 64.37512 34119 ft 440 kts 235°
2026-04-29 14:14 50.72087 64.29784 34120 ft 440 kts 235°
2026-04-29 14:15 50.68400 64.22080 34115 ft 440 kts 235°
2026-04-29 14:15 50.64695 64.14383 34115 ft 440 kts 235°
2026-04-29 14:16 50.60989 64.06712 34113 ft 440 kts 235°
2026-04-29 14:16 50.57280 63.99060 34117 ft 440 kts 235°
2026-04-29 14:17 50.55455 63.95302 34118 ft 0 kts 235°
2026-04-29 14:17 50.31135 63.40647 34080 ft 435 kts 245°
2026-04-29 14:17 50.28903 63.31903 34118 ft 433 kts 252°
2026-04-29 14:18 50.27038 63.22966 34113 ft 433 kts 252°
2026-04-29 14:18 50.24376 63.14499 34360 ft 436 kts 240°
2026-04-29 14:19 50.22695 63.10564 34743 ft 435 kts 235°
2026-04-29 14:19 50.20801 63.06885 35122 ft 434 kts 233°
2026-04-29 14:19 50.18862 63.03279 35457 ft 433 kts 232°
2026-04-29 14:19 50.16914 62.99699 35769 ft 432 kts 232°
2026-04-29 14:20 50.14963 62.96122 36022 ft 433 kts 232°
2026-04-29 14:20 50.13013 62.92541 36056 ft 435 kts 232°
2026-04-29 14:20 50.09109 62.85355 36094 ft 432 kts 232°
2026-04-29 14:21 50.05242 62.78228 36095 ft 430 kts 232°
2026-04-29 14:21 50.01395 62.71147 36110 ft 428 kts 232°
2026-04-29 14:22 49.97554 62.64093 36104 ft 427 kts 232°
2026-04-29 14:22 49.93712 62.57057 36104 ft 427 kts 232°
2026-04-29 14:23 49.89869 62.50038 36103 ft 427 kts 232°
2026-04-29 14:23 49.86038 62.43063 36096 ft 428 kts 232°
2026-04-29 14:24 49.82170 62.36037 36101 ft 428 kts 232°
2026-04-29 14:24 49.78300 62.29028 36106 ft 428 kts 232°
2026-04-29 14:25 49.74419 62.22017 36100 ft 429 kts 232°
2026-04-29 14:25 49.70540 62.15030 36099 ft 429 kts 232°
2026-04-29 14:26 49.66651 62.08042 36098 ft 428 kts 231°
2026-04-29 14:26 49.62763 62.01075 36097 ft 428 kts 231°
2026-04-29 14:27 49.58875 61.94126 36096 ft 428 kts 231°
2026-04-29 14:28 49.53068 61.83783 36090 ft 427 kts 231°
2026-04-29 14:28 49.49178 61.76876 36092 ft 427 kts 231°
2026-04-29 14:29 49.45282 61.69978 36093 ft 427 kts 231°
2026-04-29 14:29 49.41386 61.63097 36090 ft 426 kts 231°
2026-04-29 14:30 49.37492 61.56239 36090 ft 426 kts 231°
2026-04-29 14:30 49.33593 61.49389 36089 ft 426 kts 231°
2026-04-29 14:31 49.29692 61.42554 36085 ft 426 kts 231°
2026-04-29 14:31 49.25813 61.35775 36085 ft 426 kts 231°
2026-04-29 14:32 49.21909 61.28971 36085 ft 425 kts 231°
2026-04-29 14:32 49.18005 61.22184 36083 ft 425 kts 231°
2026-04-29 14:33 49.14089 61.15393 36083 ft 425 kts 230°
2026-04-29 14:33 49.10175 61.08623 36077 ft 425 kts 230°
2026-04-29 14:34 49.06250 61.01853 36079 ft 425 kts 230°
2026-04-29 14:34 49.02353 60.95147 36078 ft 425 kts 230°
2026-04-29 14:35 48.98425 60.88405 36079 ft 425 kts 230°
2026-04-29 14:35 48.94494 60.81677 36079 ft 426 kts 230°
2026-04-29 14:36 48.90557 60.74955 36078 ft 426 kts 230°
2026-04-29 14:36 48.86618 60.68246 36076 ft 426 kts 230°
2026-04-29 14:37 48.82671 60.61541 36074 ft 426 kts 230°
2026-04-29 14:37 48.78718 60.54845 36080 ft 426 kts 230°
2026-04-29 14:38 48.74763 60.48161 36072 ft 426 kts 230°
2026-04-29 14:38 48.70804 60.41487 36071 ft 426 kts 230°
2026-04-29 14:39 48.66863 60.34861 36074 ft 426 kts 230°
2026-04-29 14:39 48.62873 60.28169 36070 ft 426 kts 229°
2026-04-29 14:40 48.58930 60.21573 36066 ft 426 kts 229°
2026-04-29 14:40 48.54958 60.14944 36067 ft 426 kts 229°
2026-04-29 14:41 48.50982 60.08328 36068 ft 426 kts 229°
2026-04-29 14:41 48.47002 60.01720 36055 ft 425 kts 229°
2026-04-29 14:42 48.43025 59.95133 36067 ft 425 kts 229°
2026-04-29 14:42 48.39032 59.88537 36058 ft 426 kts 229°
2026-04-29 14:43 48.35040 59.81958 36065 ft 426 kts 229°
2026-04-29 14:43 48.31041 59.75385 36058 ft 426 kts 229°
2026-04-29 14:44 48.27039 59.68825 36051 ft 426 kts 229°
2026-04-29 14:44 48.23033 59.62272 36057 ft 426 kts 229°
2026-04-29 14:45 48.19051 59.55776 36050 ft 426 kts 229°
2026-04-29 14:45 48.15037 59.49243 36056 ft 426 kts 229°
2026-04-29 14:46 48.11023 59.42727 36042 ft 426 kts 228°
2026-04-29 14:46 48.07000 59.36214 36051 ft 426 kts 228°
2026-04-29 14:47 48.02983 59.29725 36051 ft 426 kts 228°
2026-04-29 14:47 47.98953 59.23232 36046 ft 426 kts 228°
2026-04-29 14:48 47.94924 59.16755 36047 ft 426 kts 228°
2026-04-29 14:48 47.90885 59.10278 36046 ft 426 kts 228°
2026-04-29 14:49 47.86869 59.03856 36049 ft 426 kts 228°
2026-04-29 14:49 47.82820 58.97395 36042 ft 427 kts 228°
2026-04-29 14:50 47.78769 58.90948 36042 ft 427 kts 228°
2026-04-29 14:50 47.74713 58.84507 36045 ft 427 kts 228°
2026-04-29 14:51 47.70652 58.78077 36042 ft 427 kts 228°
2026-04-29 14:51 47.66584 58.71650 36042 ft 427 kts 228°
2026-04-29 14:52 47.62514 58.65234 36037 ft 427 kts 227°
2026-04-29 14:52 47.58441 58.58831 36045 ft 427 kts 227°
2026-04-29 14:53 47.54361 58.52431 36036 ft 427 kts 227°
2026-04-29 14:53 47.50305 58.46085 36040 ft 427 kts 227°
2026-04-29 14:54 47.46190 58.39663 36036 ft 427 kts 227°
2026-04-29 14:54 47.42127 58.33337 36033 ft 427 kts 227°
2026-04-29 14:55 47.38027 58.26970 36034 ft 427 kts 227°
2026-04-29 14:55 47.33930 58.20624 36037 ft 427 kts 227°
2026-04-29 14:56 47.29833 58.14289 36038 ft 427 kts 227°
2026-04-29 14:56 47.25797 58.07883 36029 ft 427 kts 228°
2026-04-29 14:57 47.21796 58.01440 36033 ft 426 kts 228°
2026-04-29 14:57 47.17784 57.95008 36029 ft 426 kts 228°
2026-04-29 14:58 47.13766 57.88604 36028 ft 426 kts 228°
2026-04-29 14:58 47.10419 57.83287 36028 ft 426 kts 228°
2026-04-29 14:59 47.05708 57.75823 36025 ft 426 kts 228°
2026-04-29 14:59 47.01708 57.69500 36025 ft 426 kts 228°
2026-04-29 15:00 46.98355 57.64211 36018 ft 426 kts 228°
2026-04-29 15:00 46.93643 57.56799 36027 ft 425 kts 227°
2026-04-29 15:01 46.89608 57.50465 36025 ft 425 kts 227°
2026-04-29 15:01 46.85571 57.44145 36025 ft 425 kts 227°
2026-04-29 15:02 46.82215 57.38903 36021 ft 425 kts 227°
2026-04-29 15:02 46.78171 57.32598 36024 ft 425 kts 227°
2026-04-29 15:03 46.73470 57.25289 36023 ft 425 kts 227°
2026-04-29 15:03 46.70100 57.20063 36016 ft 425 kts 227°
2026-04-29 15:04 46.66043 57.13783 36018 ft 425 kts 227°
2026-04-29 15:04 46.61991 57.07525 36028 ft 425 kts 227°
2026-04-29 15:05 46.57934 57.01277 36020 ft 425 kts 227°
2026-04-29 15:05 46.53877 56.95043 36025 ft 425 kts 227°
2026-04-29 15:06 46.49818 56.88816 36023 ft 425 kts 227°
2026-04-29 15:06 46.45502 56.82938 36028 ft 425 kts 221°
2026-04-29 15:07 46.41004 56.77380 36025 ft 425 kts 221°
2026-04-29 15:07 46.36527 56.71848 36024 ft 425 kts 221°
2026-04-29 15:08 46.32032 56.66292 36016 ft 425 kts 221°
2026-04-29 15:08 46.27539 56.60744 36017 ft 425 kts 221°
2026-04-29 15:09 46.23042 56.55203 36023 ft 424 kts 221°
2026-04-29 15:09 46.18550 56.49681 36016 ft 424 kts 221°
2026-04-29 15:10 46.14061 56.44173 36019 ft 424 kts 221°
2026-04-29 15:10 46.09596 56.38708 36016 ft 424 kts 221°
2026-04-29 15:11 46.05098 56.33215 36018 ft 424 kts 221°
2026-04-29 15:11 46.00603 56.27737 36008 ft 424 kts 221°
2026-04-29 15:12 45.96102 56.22265 36012 ft 424 kts 220°
2026-04-29 15:12 45.91599 56.16801 36009 ft 424 kts 220°
2026-04-29 15:13 45.87096 56.11351 36013 ft 424 kts 220°
2026-04-29 15:13 45.82584 56.05901 36013 ft 424 kts 220°
2026-04-29 15:14 45.78073 56.00464 36007 ft 424 kts 220°
2026-04-29 15:14 45.73553 55.95028 36005 ft 424 kts 220°
2026-04-29 15:15 45.69067 55.89645 36013 ft 424 kts 220°
2026-04-29 15:15 45.64546 55.84232 36010 ft 424 kts 220°
2026-04-29 15:16 45.60023 55.78829 36008 ft 424 kts 220°
2026-04-29 15:16 45.55495 55.73430 36006 ft 424 kts 220°
2026-04-29 15:17 45.50959 55.68034 36005 ft 425 kts 220°
2026-04-29 15:17 45.46422 55.62649 36005 ft 425 kts 220°
2026-04-29 15:18 45.41871 55.57260 36005 ft 425 kts 219°
2026-04-29 15:18 45.37316 55.51877 36006 ft 426 kts 219°
2026-04-29 15:19 45.32752 55.46495 36001 ft 427 kts 219°
2026-04-29 15:19 45.28178 55.41112 36000 ft 427 kts 219°
2026-04-29 15:20 45.23625 55.35768 36002 ft 428 kts 219°
2026-04-29 15:20 45.19033 55.30389 35999 ft 428 kts 219°
2026-04-29 15:21 45.14435 55.25016 36001 ft 428 kts 219°
2026-04-29 15:21 45.09839 55.19653 36004 ft 428 kts 219°
2026-04-29 15:22 45.05370 55.14098 35995 ft 429 kts 222°
2026-04-29 15:22 45.00981 55.08358 35997 ft 429 kts 222°
2026-04-29 15:23 44.96598 55.02643 35996 ft 429 kts 221°
2026-04-29 15:23 44.92194 54.96942 35996 ft 429 kts 221°
2026-04-29 15:24 44.87789 54.91260 35992 ft 430 kts 221°
2026-04-29 15:24 44.83369 54.85572 36000 ft 430 kts 221°
2026-04-29 15:25 44.78947 54.79894 35999 ft 430 kts 221°
2026-04-29 15:25 44.74519 54.74220 35998 ft 431 kts 221°
2026-04-29 15:26 44.70082 54.68548 35994 ft 431 kts 221°
2026-04-29 15:26 44.65644 54.62884 36003 ft 431 kts 221°
2026-04-29 15:27 44.61197 54.57214 36001 ft 432 kts 221°
2026-04-29 15:27 44.56751 54.51558 35998 ft 432 kts 221°
2026-04-29 15:28 44.52298 54.45908 36003 ft 432 kts 221°
2026-04-29 15:28 44.47827 54.40249 36005 ft 432 kts 221°
2026-04-29 15:29 44.43362 54.34609 35996 ft 433 kts 221°
2026-04-29 15:30 44.34410 54.23338 35997 ft 433 kts 220°
2026-04-29 15:30 44.29930 54.17717 36000 ft 433 kts 220°
2026-04-29 15:31 44.25443 54.12098 35996 ft 433 kts 220°
2026-04-29 15:31 44.20958 54.06494 35998 ft 433 kts 220°
2026-04-29 15:32 44.16463 54.00889 36002 ft 433 kts 220°
2026-04-29 15:32 44.11966 53.95295 36000 ft 433 kts 220°
2026-04-29 15:33 44.07470 53.89712 36001 ft 433 kts 220°
2026-04-29 15:33 44.02966 53.84133 35998 ft 434 kts 220°
2026-04-29 15:34 43.98461 53.78565 35995 ft 434 kts 220°
2026-04-29 15:34 43.93949 53.73000 36000 ft 434 kts 219°
2026-04-29 15:35 43.89437 53.67445 36000 ft 434 kts 219°
2026-04-29 15:35 43.84925 53.61896 35992 ft 434 kts 219°
2026-04-29 15:36 43.80437 53.56385 36001 ft 434 kts 219°
2026-04-29 15:36 43.75917 53.50847 35998 ft 434 kts 219°
2026-04-29 15:37 43.71391 53.45316 36006 ft 434 kts 219°
2026-04-29 15:37 43.66866 53.39799 35998 ft 434 kts 219°
2026-04-29 15:38 43.62335 53.34287 36004 ft 434 kts 219°
2026-04-29 15:38 43.57803 53.28782 36003 ft 434 kts 219°
2026-04-29 15:39 43.53262 53.23280 36006 ft 434 kts 219°
2026-04-29 15:39 43.48718 53.17792 36001 ft 435 kts 219°
2026-04-29 15:40 43.44171 53.12312 36006 ft 435 kts 219°
2026-04-29 15:40 43.39616 53.06837 36005 ft 435 kts 219°
2026-04-29 15:41 43.35053 53.01363 36003 ft 436 kts 219°
2026-04-29 15:41 43.30513 52.95927 36000 ft 436 kts 219°
2026-04-29 15:42 43.25937 52.90460 35999 ft 436 kts 219°
2026-04-29 15:42 43.21357 52.84999 35997 ft 437 kts 219°
2026-04-29 15:43 43.16769 52.79540 35995 ft 437 kts 219°
2026-04-29 15:43 43.12176 52.74086 35996 ft 437 kts 219°
2026-04-29 15:44 43.07575 52.68634 35997 ft 438 kts 218°
2026-04-29 15:44 43.02964 52.63181 35996 ft 438 kts 218°
2026-04-29 15:45 42.98347 52.57733 35995 ft 439 kts 218°
2026-04-29 15:45 42.93721 52.52285 35997 ft 439 kts 218°
2026-04-29 15:46 42.89092 52.46845 35997 ft 440 kts 219°
2026-04-29 15:46 42.84452 52.41404 35998 ft 440 kts 219°
2026-04-29 15:47 42.79802 52.35962 36002 ft 441 kts 219°
2026-04-29 15:47 42.75150 52.30528 36003 ft 441 kts 219°
2026-04-29 15:48 42.70487 52.25093 36001 ft 442 kts 219°
2026-04-29 15:48 42.65816 52.19660 36004 ft 442 kts 219°
2026-04-29 15:49 42.61139 52.14231 36004 ft 442 kts 219°
2026-04-29 15:49 42.59588 52.12434 36008 ft 443 kts 219°
2026-04-29 15:50 42.51867 52.03501 36012 ft 443 kts 219°
2026-04-29 15:50 42.47172 51.98085 36011 ft 443 kts 219°
2026-04-29 15:51 42.44064 51.94505 36014 ft 444 kts 219°
2026-04-29 15:51 42.38051 51.87594 36016 ft 444 kts 219°
2026-04-29 15:52 42.33601 51.82490 36017 ft 444 kts 219°
2026-04-29 15:52 42.28886 51.77094 36009 ft 444 kts 219°
2026-04-29 15:53 42.24163 51.71699 36010 ft 444 kts 219°
2026-04-29 15:53 42.19442 51.66318 36024 ft 444 kts 219°
2026-04-29 15:54 42.14717 51.60944 36032 ft 445 kts 219°
2026-04-29 15:54 42.09987 51.55575 36037 ft 445 kts 219°
2026-04-29 15:55 42.05252 51.50212 36034 ft 445 kts 219°
2026-04-29 15:55 42.00625 51.44761 36026 ft 445 kts 225°
2026-04-29 15:56 41.96361 51.38712 36028 ft 446 kts 226°
2026-04-29 15:56 41.92108 51.32652 36037 ft 446 kts 226°
2026-04-29 15:57 41.87841 51.26617 36044 ft 446 kts 225°
2026-04-29 15:57 41.83563 51.20599 36048 ft 446 kts 225°
2026-04-29 15:58 41.79281 51.14595 36048 ft 446 kts 225°
2026-04-29 15:58 41.74998 51.08600 36049 ft 445 kts 225°
2026-04-29 15:59 41.70711 51.02611 36056 ft 445 kts 226°
2026-04-29 15:59 41.66419 50.96629 36058 ft 445 kts 226°
2026-04-29 16:00 41.62130 50.90661 36063 ft 445 kts 226°
2026-04-29 16:00 41.57891 50.84776 36047 ft 435 kts 226°
2026-04-29 16:00 41.55809 50.81887 35611 ft 432 kts 226°
2026-04-29 16:01 41.53723 50.78998 35021 ft 431 kts 225°
2026-04-29 16:01 41.51644 50.76121 34342 ft 433 kts 225°
2026-04-29 16:01 41.49547 50.73225 33641 ft 433 kts 225°
2026-04-29 16:01 41.47463 50.70348 33034 ft 430 kts 226°
2026-04-29 16:02 41.45392 50.67492 32477 ft 427 kts 226°
2026-04-29 16:02 41.43332 50.64653 31927 ft 424 kts 226°
2026-04-29 16:02 41.41292 50.61845 31410 ft 421 kts 226°
2026-04-29 16:02 41.39260 50.59049 30885 ft 418 kts 226°
2026-04-29 16:03 41.37243 50.56279 30379 ft 415 kts 226°
2026-04-29 16:03 41.35240 50.53529 29815 ft 413 kts 226°
2026-04-29 16:03 41.33243 50.50789 29238 ft 411 kts 226°
2026-04-29 16:03 41.31261 50.48074 28707 ft 407 kts 226°
2026-04-29 16:04 41.29296 50.45384 28183 ft 404 kts 226°
2026-04-29 16:04 41.27344 50.42714 27666 ft 402 kts 226°
2026-04-29 16:04 41.25401 50.40061 27154 ft 399 kts 226°
2026-04-29 16:04 41.23497 50.37461 26650 ft 397 kts 226°
2026-04-29 16:05 41.21552 50.34809 26154 ft 394 kts 226°
2026-04-29 16:05 41.19668 50.32243 25669 ft 392 kts 226°
2026-04-29 16:05 41.17770 50.29658 25184 ft 390 kts 226°
2026-04-29 16:05 41.15878 50.27083 24697 ft 389 kts 227°
2026-04-29 16:06 41.13841 50.24779 24200 ft 385 kts 212°
2026-04-29 16:06 41.11368 50.23438 23750 ft 386 kts 197°
2026-04-29 16:06 41.08705 50.22970 23190 ft 390 kts 181°
2026-04-29 16:06 41.06012 50.23286 22720 ft 387 kts 176°
2026-04-29 16:07 41.03340 50.23724 22227 ft 386 kts 175°
2026-04-29 16:07 41.00686 50.24178 21764 ft 384 kts 176°
2026-04-29 16:07 40.98045 50.24622 21298 ft 382 kts 176°
2026-04-29 16:07 40.95415 50.25048 20837 ft 380 kts 176°
2026-04-29 16:08 40.92800 50.25458 20393 ft 378 kts 176°
2026-04-29 16:08 40.90193 50.25859 19927 ft 377 kts 176°
2026-04-29 16:08 40.87595 50.26254 19475 ft 375 kts 176°
2026-04-29 16:08 40.85004 50.26645 19023 ft 374 kts 176°
2026-04-29 16:09 40.82417 50.27034 18569 ft 374 kts 176°
2026-04-29 16:09 40.79835 50.27423 18063 ft 374 kts 176°
2026-04-29 16:09 40.77254 50.27811 17581 ft 372 kts 176°
2026-04-29 16:09 40.74690 50.28197 17103 ft 371 kts 176°
2026-04-29 16:10 40.72130 50.28584 16644 ft 369 kts 176°
2026-04-29 16:10 40.69584 50.28968 16205 ft 367 kts 176°
2026-04-29 16:10 40.67049 50.29347 15749 ft 366 kts 177°
2026-04-29 16:10 40.64524 50.29723 15299 ft 365 kts 177°
2026-04-29 16:11 40.62000 50.29953 14859 ft 362 kts 182°
2026-04-29 16:11 40.59490 50.29966 14423 ft 361 kts 184°
2026-04-29 16:11 40.56982 50.29917 13973 ft 360 kts 184°
2026-04-29 16:11 40.54484 50.29866 13492 ft 359 kts 184°
2026-04-29 16:12 40.51988 50.29830 13018 ft 358 kts 184°
2026-04-29 16:12 40.50338 50.29815 12714 ft 357 kts 183°
2026-04-29 16:12 40.47023 50.29798 12109 ft 355 kts 183°
2026-04-29 16:12 40.44550 50.29793 11681 ft 354 kts 183°
2026-04-29 16:13 40.42091 50.29791 11256 ft 353 kts 182°
2026-04-29 16:13 40.39640 50.29791 10865 ft 351 kts 182°
2026-04-29 16:13 40.37261 50.29796 10714 ft 342 kts 182°
2026-04-29 16:13 40.34975 50.29800 10531 ft 315 kts 182°
2026-04-29 16:14 40.32849 50.29804 10338 ft 289 kts 183°
2026-04-29 16:14 40.30938 50.29805 10206 ft 270 kts 183°
2026-04-29 16:14 40.29090 50.29801 10088 ft 262 kts 183°
2026-04-29 16:14 40.27284 50.29797 9990 ft 261 kts 183°
2026-04-29 16:15 40.25411 50.29793 9672 ft 275 kts 182°
2026-04-29 16:15 40.23486 50.29820 9354 ft 279 kts 182°
2026-04-29 16:15 40.21570 50.29863 8999 ft 267 kts 182°
2026-04-29 16:15 40.19741 50.29904 8686 ft 260 kts 182°
2026-04-29 16:16 40.17949 50.29940 8495 ft 254 kts 182°
2026-04-29 16:16 40.16215 50.29974 8375 ft 241 kts 182°
2026-04-29 16:16 40.14615 50.30007 8258 ft 223 kts 182°
2026-04-29 16:16 40.13070 50.29877 8064 ft 224 kts 203°
2026-04-29 16:17 40.11829 50.28702 8030 ft 225 kts 235°
2026-04-29 16:17 40.10945 50.27000 8017 ft 228 kts 238°
2026-04-29 16:17 40.10048 50.25250 8015 ft 236 kts 238°
2026-04-29 16:17 40.09139 50.23479 7988 ft 229 kts 238°
2026-04-29 16:18 40.08267 50.21781 8002 ft 224 kts 238°
2026-04-29 16:18 40.07530 50.20033 7989 ft 217 kts 255°
2026-04-29 16:18 40.07176 50.18062 8023 ft 232 kts 258°
2026-04-29 16:18 40.06797 50.15972 8003 ft 235 kts 257°
2026-04-29 16:19 40.06417 50.13941 8000 ft 229 kts 257°
2026-04-29 16:19 40.06032 50.11898 8015 ft 235 kts 257°
2026-04-29 16:19 40.05660 50.09825 7998 ft 231 kts 263°
2026-04-29 16:19 40.05679 50.07763 8012 ft 227 kts 276°
2026-04-29 16:20 40.05868 50.05723 7998 ft 226 kts 277°
2026-04-29 16:20 40.06053 50.03721 7995 ft 225 kts 276°
2026-04-29 16:20 40.06225 50.01713 7987 ft 220 kts 276°
2026-04-29 16:20 40.06391 49.99721 8008 ft 224 kts 276°
2026-04-29 16:21 40.06713 49.97736 7994 ft 222 kts 294°
2026-04-29 16:21 40.07407 49.95952 8014 ft 224 kts 296°
2026-04-29 16:21 40.08123 49.94086 8015 ft 234 kts 295°
2026-04-29 16:21 40.08871 49.92179 8008 ft 235 kts 303°
2026-04-29 16:22 40.10067 49.90757 8010 ft 237 kts 334°
2026-04-29 16:22 40.11686 49.90312 7872 ft 246 kts
2026-04-29 16:22 40.13320 49.90943 7426 ft 243 kts 31°
2026-04-29 16:22 40.14677 49.92150 7069 ft 231 kts 34°
2026-04-29 16:23 40.15968 49.93335 6738 ft 225 kts 34°
2026-04-29 16:23 40.17260 49.94521 6435 ft 230 kts 34°
2026-04-29 16:23 40.18594 49.95745 6115 ft 238 kts 33°
2026-04-29 16:23 40.19964 49.96997 5728 ft 239 kts 33°
2026-04-29 16:24 40.21291 49.98211 5353 ft 226 kts 32°
2026-04-29 16:24 40.22547 49.99355 5014 ft 214 kts 32°
2026-04-29 16:24 40.23748 50.00446 4716 ft 210 kts 31°
2026-04-29 16:24 40.24969 50.01553 4435 ft 217 kts 31°
2026-04-29 16:25 40.26212 50.02682 4106 ft 221 kts 30°
2026-04-29 16:25 40.27457 50.03816 3786 ft 215 kts 30°
2026-04-29 16:25 40.28658 50.04911 3486 ft 205 kts 30°
2026-04-29 16:25 40.29788 50.05939 3225 ft 189 kts 27°
2026-04-29 16:26 40.30908 50.06480 2959 ft 158 kts
2026-04-29 16:26 40.31951 50.06521 2739 ft 144 kts 356°
2026-04-29 16:26 40.32870 50.06519 2559 ft 141 kts 356°
2026-04-29 16:26 40.33869 50.06506 2334 ft 142 kts 356°
2026-04-29 16:27 40.34841 50.06491 2136 ft 140 kts 356°
2026-04-29 16:27 40.35818 50.06476 2030 ft 141 kts 356°
2026-04-29 16:27 40.36782 50.06461 1858 ft 139 kts 356°
2026-04-29 16:27 40.37740 50.06446 1656 ft 137 kts 356°
2026-04-29 16:28 40.38692 50.06432 1482 ft 138 kts 357°
2026-04-29 16:28 40.39663 50.06416 1289 ft 141 kts 357°
2026-04-29 16:28 40.40645 50.06403 1084 ft 141 kts 356°
2026-04-29 16:28 40.41633 50.06386 865 ft 145 kts 357°
2026-04-29 16:29 40.42658 50.06371 669 ft 150 kts 356°
2026-04-29 16:29 40.43350 50.06360 497 ft 150 kts 356°
2026-04-29 16:29 40.44724 50.06345 244 ft 143 kts 358°
2026-04-29 16:29 40.45709 50.06330 59 ft 141 kts 359°
2026-04-29 16:30 40.46647 50.06302 11 ft 116 kts 358°
2026-04-29 16:30 40.47223 50.06288 11 ft 49 kts 359°
2026-04-29 16:30 40.47393 50.06270 13 ft 19 kts 335°
2026-04-29 16:30 40.47529 50.06185 15 ft 17 kts 331°
2026-04-29 16:31 40.47554 50.06160 15 ft 0 kts 315°